Wadena, MN

2:54 PM CDT on July 21, 2017 (GMT -0500)
Wadena Municipal

Weather History for KADC - June, 2013

Change the Weather History Date:

Thursday, June 20, 2013

  Actual Average Record
Temperature  
Mean Temperature 68 °F -  
Max Temperature 75 °F 73 °F 95 °F (1988)
Min Temperature 60 °F 52 °F 34 °F (1969)
Cooling Degree Days 2    
Growing Degree Days 18 (Base 50)    
Moisture  
Dew Point 61 °F    
Average Humidity 82    
Maximum Humidity 100    
Minimum Humidity 68    
Precipitation  
Precipitation 0.59 in - - ()
Sea Level Pressure  
Sea Level Pressure 29.93 in    
Wind  
Wind Speed 8 mph (ESE)    
Max Wind Speed 16 mph    
Max Gust Speed 22 mph    
Visibility 10 miles    
Events Rain , Thunderstorm    
Averages and records for this station are not official NWS values.
T = Trace of Precipitation, MM = Missing Value Source: NWS Daily Summary

Daily Weather History Graph

Daily Weather History Graph

Search for Another Location

Airport or City:

Trip Planner

Search our weather history database for the weather conditions in past years. The results will help you decide how hot, cold, wet, or windy it might be!

Date:

Astronomy

Jun. 20, 2013 Rise Set
Actual Time 5:27 AM CDT 9:17 PM CDT
Civil Twilight 4:48 AM CDT 9:56 PM CDT
Nautical Twilight 3:55 AM CDT 10:49 PM CDT
Astronomical Twilight 2:38 AM CDT 12:06 AM CDT
Moon 6:14 PM CDT (6/20) 3:03 AM CDT (6/20)
Length of Visible Light 17h 07m
Length of Day
15h 49m
Waxing Gibbous, 89% of the Moon is Illuminated
Jun 20
Waxing Gibbous
Jun 23
Full
Jun 29
Last Quarter
Jul 8
New
Jul 15
First Quarter

Hourly Weather History & Observations

Time (CDT) Temp. Dew Point Humidity Pressure Visibility Wind Dir Wind Speed Gust Speed Precip Events Conditions
12:15 AM 66.2 °F 57.2 °F 73% 29.92 in 10.0 mi ESE 6.9 mph - N/A   Scattered Clouds
12:34 AM 66.2 °F 57.2 °F 73% 29.93 in 10.0 mi East 5.8 mph - N/A   Scattered Clouds
12:53 AM 66.2 °F 57.2 °F 73% 29.93 in 10.0 mi ESE 3.5 mph - N/A   Mostly Cloudy
1:15 AM 64.4 °F 55.4 °F 73% 29.93 in 10.0 mi ESE 5.8 mph - N/A   Scattered Clouds
1:34 AM 66.2 °F 57.2 °F 73% 29.93 in 10.0 mi SE 5.8 mph - N/A   Mostly Cloudy
1:53 AM 66.2 °F 55.4 °F 68% 29.93 in 10.0 mi SSE 8.1 mph - N/A Thunderstorm Scattered Clouds
2:15 AM 66.2 °F 55.4 °F 68% 29.92 in 10.0 mi SSE 8.1 mph - N/A   Clear
2:35 AM 66.2 °F 57.2 °F 73% 29.92 in 10.0 mi SSE 4.6 mph - N/A   Clear
2:52 AM 66.2 °F 57.2 °F 73% 29.92 in 10.0 mi SE 5.8 mph - N/A   Scattered Clouds
3:14 AM 66.2 °F 57.2 °F 73% 29.92 in 10.0 mi ESE 4.6 mph - N/A Thunderstorm Thunderstorm
3:34 AM 66.2 °F 57.2 °F 73% 29.92 in 10.0 mi ESE 6.9 mph - N/A Thunderstorm Mostly Cloudy
3:53 AM 66.2 °F 57.2 °F 73% 29.92 in 10.0 mi SE 5.8 mph - N/A   Scattered Clouds
4:15 AM 66.2 °F 57.2 °F 73% 29.90 in 10.0 mi SSE 10.4 mph - N/A   Scattered Clouds
4:35 AM 66.2 °F 57.2 °F 73% 29.90 in 10.0 mi SE 6.9 mph - N/A   Scattered Clouds
4:53 AM 66.2 °F 59.0 °F 78% 29.91 in 10.0 mi SSE 6.9 mph - N/A   Scattered Clouds
5:15 AM 66.2 °F 59.0 °F 78% 29.91 in 10.0 mi South 6.9 mph - N/A   Scattered Clouds
5:35 AM 66.2 °F 59.0 °F 78% 29.92 in 10.0 mi SSW 4.6 mph - N/A   Mostly Cloudy
5:53 AM 66.2 °F 59.0 °F 78% 29.93 in 10.0 mi SSW 5.8 mph - N/A   Mostly Cloudy
6:15 AM 66.2 °F 60.8 °F 83% 29.94 in 10.0 mi WSW 6.9 mph - N/A Rain , Thunderstorm Thunderstorms and Rain
6:35 AM 64.4 °F 60.8 °F 88% 29.93 in 10.0 mi West 3.5 mph - 0.03 in Rain Light Rain
6:52 AM 64.4 °F 60.8 °F 88% 29.95 in 7.0 mi Calm Calm - 0.05 in Rain , Thunderstorm Light Thunderstorms and Rain
7:14 AM 62.6 °F 60.8 °F 94% 29.99 in 7.0 mi NNW 4.6 mph - 0.04 in Rain Heavy Rain
7:35 AM 62.6 °F 60.8 °F 94% 30.00 in 10.0 mi NW 5.8 mph - 0.10 in Rain Rain
7:53 AM 62.6 °F 59.0 °F 88% 29.99 in 10.0 mi WNW 5.8 mph - 0.16 in Rain Rain
8:15 AM 62.6 °F 60.8 °F 94% 29.99 in 10.0 mi WSW 4.6 mph - 0.06 in Rain Rain
8:35 AM 60.8 °F 59.0 °F 94% 29.97 in 10.0 mi North 4.6 mph - 0.12 in Rain Rain
8:53 AM 60.8 °F 60.8 °F 100% 29.95 in 10.0 mi NNE 5.8 mph - 0.13 in Rain Rain
9:15 AM 60.8 °F 60.8 °F 100% 29.96 in 10.0 mi ESE 10.4 mph - 0.02 in Rain Rain
9:30 AM 60.8 °F 60.8 °F 100% 29.97 in 10.0 mi ESE 8.1 mph - 0.07 in Rain Rain
9:53 AM 60.8 °F 60.8 °F 100% 29.95 in 10.0 mi East 8.1 mph - 0.21 in Rain Heavy Rain
10:15 AM 60.8 °F 60.8 °F 100% 29.94 in 10.0 mi East 12.7 mph 16.1 mph 0.03 in Rain Light Rain
10:35 AM 62.6 °F 60.8 °F 94% 29.94 in 10.0 mi East 11.5 mph - 0.04 in Rain Light Rain
10:53 AM 62.6 °F 62.6 °F 100% 29.92 in 10.0 mi East 10.4 mph - 0.04 in   Clear
11:15 AM 64.4 °F 62.6 °F 94% 29.92 in 10.0 mi East 11.5 mph 17.3 mph N/A   Scattered Clouds
11:34 AM 64.4 °F 62.6 °F 94% 29.92 in 10.0 mi East 6.9 mph - N/A   Mostly Cloudy
11:53 AM 66.2 °F 62.6 °F 88% 29.93 in 10.0 mi East 9.2 mph - N/A   Mostly Cloudy
12:15 PM 68.0 °F 64.4 °F 88% 29.92 in 10.0 mi East 4.6 mph - N/A   Mostly Cloudy
12:34 PM 69.8 °F 64.4 °F 83% 29.94 in 10.0 mi East 9.2 mph - N/A   Mostly Cloudy
12:53 PM 69.8 °F 64.4 °F 83% 29.94 in 10.0 mi ESE 9.2 mph - N/A   Mostly Cloudy
1:15 PM 71.6 °F 64.4 °F 78% 29.95 in 10.0 mi ESE 11.5 mph - N/A   Scattered Clouds
1:34 PM 71.6 °F 64.4 °F 78% 29.95 in 10.0 mi ESE 8.1 mph - N/A   Scattered Clouds
1:53 PM 73.4 °F 64.4 °F 73% 29.95 in 10.0 mi ESE 11.5 mph - N/A   Scattered Clouds
2:15 PM 73.4 °F 64.4 °F 73% 29.94 in 10.0 mi ESE 9.2 mph - N/A   Scattered Clouds
2:35 PM 73.4 °F 64.4 °F 73% 29.94 in 10.0 mi SE 9.2 mph - N/A   Scattered Clouds
2:53 PM 75.2 °F 64.4 °F 69% 29.94 in 10.0 mi SE 10.4 mph - N/A   Scattered Clouds
3:14 PM 75.2 °F 66.2 °F 73% 29.94 in 10.0 mi ESE 9.2 mph - N/A   Mostly Cloudy
3:35 PM 75.2 °F 66.2 °F 73% 29.94 in 10.0 mi East 6.9 mph - N/A   Scattered Clouds
3:52 PM 75.2 °F 66.2 °F 73% 29.94 in 10.0 mi ESE 6.9 mph - N/A   Mostly Cloudy
4:15 PM 75.2 °F 66.2 °F 73% 29.93 in 10.0 mi East 6.9 mph - N/A   Scattered Clouds
4:35 PM 75.2 °F 66.2 °F 73% 29.92 in 10.0 mi East 9.2 mph - N/A   Scattered Clouds
4:53 PM 75.2 °F 66.2 °F 73% 29.92 in 10.0 mi East 6.9 mph - N/A   Scattered Clouds
5:15 PM 75.2 °F 66.2 °F 73% 29.92 in 10.0 mi East 6.9 mph - N/A   Mostly Cloudy
5:34 PM 75.2 °F 66.2 °F 73% 29.92 in 10.0 mi ENE 11.5 mph - N/A   Mostly Cloudy
5:53 PM 73.4 °F 66.2 °F 78% 29.93 in 10.0 mi NE 12.7 mph 17.3 mph N/A   Overcast
6:15 PM 71.6 °F 64.4 °F 78% 29.92 in 10.0 mi ENE 11.5 mph 18.4 mph N/A   Mostly Cloudy
6:35 PM 71.6 °F 64.4 °F 78% 29.92 in 10.0 mi ENE 13.8 mph 20.7 mph N/A   Mostly Cloudy
6:53 PM 69.8 °F 64.4 °F 83% 29.91 in 10.0 mi East 13.8 mph 21.9 mph N/A   Scattered Clouds
7:15 PM 71.6 °F 62.6 °F 73% 29.91 in 10.0 mi East 15.0 mph 20.7 mph N/A   Scattered Clouds
7:34 PM 69.8 °F 62.6 °F 78% 29.91 in 10.0 mi East 13.8 mph 20.7 mph N/A   Clear
7:53 PM 69.8 °F 62.6 °F 78% 29.91 in 10.0 mi East 13.8 mph 19.6 mph N/A   Clear
8:15 PM 68.0 °F 62.6 °F 83% 29.91 in 10.0 mi ENE 12.7 mph 19.6 mph N/A   Clear
8:34 PM 68.0 °F 62.6 °F 83% 29.91 in 10.0 mi ENE 13.8 mph - N/A Thunderstorm Clear
8:53 PM 66.2 °F 62.6 °F 88% 29.91 in 10.0 mi ENE 12.7 mph 17.3 mph N/A   Clear
9:15 PM 66.2 °F 62.6 °F 88% 29.90 in 10.0 mi ENE 13.8 mph 17.3 mph N/A   Clear
9:35 PM 66.2 °F 60.8 °F 83% 29.90 in 10.0 mi East 11.5 mph 18.4 mph N/A Thunderstorm Scattered Clouds
9:53 PM 66.2 °F 60.8 °F 83% 29.92 in 7.0 mi East 10.4 mph 16.1 mph N/A Rain , Thunderstorm Light Thunderstorms and Rain
10:15 PM 64.4 °F 60.8 °F 88% 29.90 in 10.0 mi East 13.8 mph 20.7 mph N/A Rain , Thunderstorm Light Thunderstorms and Rain
10:35 PM 64.4 °F 60.8 °F 88% 29.89 in 10.0 mi East 16.1 mph 19.6 mph N/A Rain , Thunderstorm Light Thunderstorms and Rain
10:53 PM 64.4 °F 60.8 °F 88% 29.88 in 10.0 mi East 9.2 mph - N/A Thunderstorm Mostly Cloudy
11:15 PM 64.4 °F 60.8 °F 88% 29.87 in 10.0 mi East 9.2 mph 18.4 mph N/A   Scattered Clouds
11:35 PM 64.4 °F 60.8 °F 88% 29.87 in 10.0 mi ENE 6.9 mph - N/A Thunderstorm Mostly Cloudy
11:47 PM 64.4 °F 60.8 °F 88% 29.89 in 10.0 mi ENE 6.9 mph - N/A Rain , Thunderstorm Light Thunderstorms and Rain